Вернуться в каталог

STARLINK-5773

АктивенСвязьVLEO
NORAD 57074·PAYLOAD·🇺🇸 United States

Запущен Jun 22, 2023 с Vandenberg Space Force Base

Loading…

Ближайшие Пролёты (ближайшие 24 часа)

TLE

СвежийSource: CelesTrak SupGP

Эпоха: Sep 15, 2026, 02:08 UTC

1 57074C 23088AC  26258.08937500  .00044223  00000+0  16020-2 0  2582
2 57074  43.0006 124.5587 0001113 266.4557 222.3989 15.27552729    12

Отслеживайте STARLINK-5773 в реальном времени с AllMySat

Download on the App Store